Time,TemperatureF,DewpointF,PressureIn,WindDirection,WindDirectionDegrees,WindSpeedMPH,WindSpeedGustMPH,Humidity,HourlyPrecipIn,Conditions,Clouds,dailyrainin,SoftwareType,DateUTC
2013-02-23 00:00:00,33.6,28.1,30.27,East,90,0.0,0.0,73,0.00,,,0.00,fowsr,2013-02-23 05:00:00,
2013-02-23 00:05:00,33.6,28.1,30.26,NE,45,0.0,0.0,73,0.00,,,0.00,fowsr,2013-02-23 05:05:00,
2013-02-23 00:10:00,33.6,28.3,30.26,East,90,0.0,0.0,74,0.00,,,0.00,fowsr,2013-02-23 05:10:00,
2013-02-23 00:15:00,33.6,28.3,30.26,East,90,0.0,0.0,74,0.00,,,0.00,fowsr,2013-02-23 05:15:00,
2013-02-23 00:20:00,33.6,28.3,30.26,East,90,0.0,0.0,74,0.00,,,0.00,fowsr,2013-02-23 05:20:00,
2013-02-23 00:25:00,33.6,28.3,30.27,East,90,0.0,0.0,74,0.00,,,0.00,fowsr,2013-02-23 05:25:00,
2013-02-23 00:30:00,33.6,28.3,30.26,East,90,0.0,0.0,74,0.00,,,0.00,fowsr,2013-02-23 05:30:00,
2013-02-23 00:35:00,33.6,28.3,30.26,East,90,0.0,0.0,74,0.00,,,0.00,fowsr,2013-02-23 05:35:00,
2013-02-23 00:45:00,33.6,28.3,30.27,East,90,0.0,0.0,74,0.00,,,0.00,fowsr,2013-02-23 05:45:00,
2013-02-23 00:50:00,33.6,28.3,30.26,East,90,0.0,0.0,74,0.00,,,0.00,fowsr,2013-02-23 05:50:00,
2013-02-23 00:55:00,33.6,28.6,30.25,NE,45,0.0,0.0,75,0.00,,,0.00,fowsr,2013-02-23 05:55:00,
2013-02-23 01:00:00,33.4,28.6,30.25,NE,45,0.0,0.0,76,0.00,,,0.00,fowsr,2013-02-23 06:00:00,
2013-02-23 01:05:00,33.4,28.6,30.25,NE,45,0.0,0.0,76,0.00,,,0.00,fowsr,2013-02-23 06:05:00,
2013-02-23 01:10:00,33.4,29.1,30.25,NE,45,0.7,1.6,78,0.00,,,0.00,fowsr,2013-02-23 06:10:00,
2013-02-23 01:15:00,33.3,29.1,30.25,NE,45,0.0,0.0,79,0.00,,,0.00,fowsr,2013-02-23 06:15:00,
2013-02-23 01:20:00,33.3,29.3,30.24,NE,45,0.0,0.0,80,0.00,,,0.00,fowsr,2013-02-23 06:20:00,
2013-02-23 01:30:00,33.1,29.6,30.24,NE,45,0.0,0.0,82,0.00,,,0.00,fowsr,2013-02-23 06:30:00,
2013-02-23 01:35:00,32.9,29.6,30.24,East,90,0.0,0.0,83,0.00,,,0.00,fowsr,2013-02-23 06:35:00,
2013-02-23 01:40:00,32.9,29.6,30.23,East,90,0.0,0.0,83,0.00,,,0.00,fowsr,2013-02-23 06:40:00,
2013-02-23 01:45:00,32.9,29.6,30.23,East,90,0.0,0.0,83,0.00,,,0.00,fowsr,2013-02-23 06:45:00,
2013-02-23 01:50:00,32.7,29.4,30.23,NE,45,0.0,0.0,83,0.00,,,0.00,fowsr,2013-02-23 06:50:00,
2013-02-23 01:55:00,32.7,29.4,30.23,East,90,0.0,0.0,83,0.00,,,0.00,fowsr,2013-02-23 06:55:00,
2013-02-23 02:00:00,32.7,29.4,30.22,NE,45,0.0,0.0,83,0.00,,,0.00,fowsr,2013-02-23 07:00:00,
2013-02-23 02:05:00,32.7,29.4,30.22,East,90,0.0,0.0,83,0.00,,,0.00,fowsr,2013-02-23 07:05:00,
2013-02-23 02:10:00,32.7,29.6,30.21,NE,45,0.0,0.0,84,0.00,,,0.00,fowsr,2013-02-23 07:10:00,
2013-02-23 02:15:00,32.7,29.6,30.21,NE,45,0.0,0.0,84,0.00,,,0.00,fowsr,2013-02-23 07:15:00,
2013-02-23 02:20:00,32.7,29.6,30.20,NE,45,0.0,0.0,84,0.00,,,0.00,fowsr,2013-02-23 07:20:00,
2013-02-23 02:25:00,32.7,29.6,30.20,NE,45,0.0,0.7,84,0.00,,,0.00,fowsr,2013-02-23 07:25:00,
2013-02-23 02:30:00,32.7,29.9,30.20,East,90,0.7,1.6,85,0.00,,,0.00,fowsr,2013-02-23 07:30:00,
2013-02-23 02:40:00,32.9,30.0,30.20,NE,45,0.0,0.0,85,0.00,,,0.00,fowsr,2013-02-23 07:40:00,
2013-02-23 02:45:00,32.9,30.0,30.20,NE,45,0.0,0.0,85,0.00,,,0.00,fowsr,2013-02-23 07:45:00,
2013-02-23 02:50:00,33.1,30.2,30.20,NE,45,0.0,0.0,85,0.00,,,0.00,fowsr,2013-02-23 07:50:00,
2013-02-23 02:55:00,33.1,30.2,30.20,NE,45,0.7,0.7,85,0.00,,,0.00,fowsr,2013-02-23 07:55:00,
2013-02-23 03:00:00,33.3,30.4,30.19,NE,45,0.0,0.0,85,0.00,,,0.00,fowsr,2013-02-23 08:00:00,
2013-02-23 03:10:00,33.3,30.4,30.19,East,90,0.0,0.0,85,0.00,,,0.00,fowsr,2013-02-23 08:10:00,
2013-02-23 03:15:00,33.4,30.8,30.18,NE,45,0.0,0.0,86,0.00,,,0.00,fowsr,2013-02-23 08:15:00,
2013-02-23 03:20:00,33.4,30.8,30.18,East,90,0.0,1.6,86,0.00,,,0.00,fowsr,2013-02-23 08:20:00,
2013-02-23 03:25:00,33.6,30.9,30.18,NE,45,0.0,0.0,86,0.00,,,0.00,fowsr,2013-02-23 08:25:00,
2013-02-23 03:30:00,33.6,30.9,30.18,East,90,0.0,0.0,86,0.00,,,0.00,fowsr,2013-02-23 08:30:00,
2013-02-23 03:35:00,33.8,30.9,30.18,East,90,0.0,0.0,85,0.00,,,0.00,fowsr,2013-02-23 08:35:00,
2013-02-23 03:40:00,33.8,30.9,30.18,East,90,0.0,0.0,85,0.00,,,0.00,fowsr,2013-02-23 08:40:00,
2013-02-23 03:45:00,34.0,31.1,30.17,East,90,0.0,1.6,85,0.00,,,0.00,fowsr,2013-02-23 08:45:00,
2013-02-23 03:50:00,34.0,31.1,30.17,East,90,0.0,1.6,85,0.01,,,0.01,fowsr,2013-02-23 08:50:00,
2013-02-23 03:55:00,34.0,31.3,30.17,NE,45,0.0,0.7,86,0.01,,,0.01,fowsr,2013-02-23 08:55:00,
2013-02-23 04:05:00,34.2,31.5,30.17,East,90,0.0,1.6,86,0.01,,,0.01,fowsr,2013-02-23 09:05:00,
2013-02-23 04:10:00,34.2,31.5,30.17,SE,135,0.0,0.7,86,0.01,,,0.01,fowsr,2013-02-23 09:10:00,
2013-02-23 04:20:00,34.3,31.6,30.17,East,90,0.0,1.6,86,0.01,,,0.01,fowsr,2013-02-23 09:20:00,
2013-02-23 04:25:00,34.5,31.8,30.16,East,90,0.7,1.6,86,0.01,,,0.01,fowsr,2013-02-23 09:25:00,
2013-02-23 04:30:00,34.5,31.8,30.16,East,90,0.0,0.7,86,0.01,,,0.01,fowsr,2013-02-23 09:30:00,
2013-02-23 04:35:00,34.5,32.0,30.16,SE,135,0.7,1.6,87,0.01,,,0.01,fowsr,2013-02-23 09:35:00,
2013-02-23 04:40:00,34.7,32.2,30.16,East,90,0.7,2.2,87,0.01,,,0.01,fowsr,2013-02-23 09:40:00,
2013-02-23 04:45:00,34.7,32.2,30.16,East,90,0.0,0.7,87,0.01,,,0.01,fowsr,2013-02-23 09:45:00,
2013-02-23 04:55:00,34.7,32.2,30.15,NE,45,0.7,1.6,87,0.00,,,0.01,fowsr,2013-02-23 09:55:00,
2013-02-23 05:00:00,34.9,32.4,30.15,East,90,0.7,1.6,87,0.00,,,0.01,fowsr,2013-02-23 10:00:00,
2013-02-23 05:05:00,34.9,32.4,30.15,East,90,0.7,1.6,87,0.00,,,0.01,fowsr,2013-02-23 10:05:00,
2013-02-23 05:10:00,35.1,32.6,30.15,NE,45,0.0,0.7,87,0.00,,,0.01,fowsr,2013-02-23 10:10:00,
2013-02-23 05:15:00,35.1,32.6,30.15,East,90,0.0,1.6,87,0.00,,,0.01,fowsr,2013-02-23 10:15:00,
2013-02-23 05:20:00,35.1,32.6,30.14,NE,45,0.0,0.7,87,0.00,,,0.01,fowsr,2013-02-23 10:20:00,
2013-02-23 05:25:00,35.2,32.7,30.14,NE,45,0.7,1.6,87,0.01,,,0.02,fowsr,2013-02-23 10:25:00,
2013-02-23 05:30:00,35.2,32.9,30.14,East,90,0.0,0.0,88,0.01,,,0.02,fowsr,2013-02-23 10:30:00,
2013-02-23 05:35:00,35.4,33.1,30.14,NE,45,0.0,1.6,88,0.01,,,0.02,fowsr,2013-02-23 10:35:00,
2013-02-23 05:40:00,35.4,33.1,30.14,NE,45,0.0,0.7,88,0.01,,,0.02,fowsr,2013-02-23 10:40:00,
2013-02-23 05:45:00,35.6,33.1,30.15,NE,45,0.0,1.6,87,0.01,,,0.02,fowsr,2013-02-23 10:45:00,
2013-02-23 05:50:00,35.6,33.1,30.14,East,90,0.0,0.0,87,0.01,,,0.02,fowsr,2013-02-23 10:50:00,
2013-02-23 05:55:00,35.6,33.1,30.15,East,90,0.0,0.0,87,0.01,,,0.02,fowsr,2013-02-23 10:55:00,
2013-02-23 06:00:00,35.8,33.3,30.14,East,90,0.7,1.6,87,0.01,,,0.02,fowsr,2013-02-23 11:00:00,
2013-02-23 06:05:00,35.8,33.3,30.14,SE,135,1.6,3.1,87,0.01,,,0.02,fowsr,2013-02-23 11:05:00,
2013-02-23 06:10:00,36.0,33.4,30.14,East,90,0.0,0.7,87,0.01,,,0.02,fowsr,2013-02-23 11:10:00,
2013-02-23 06:15:00,36.0,33.4,30.14,SE,135,0.7,1.6,87,0.01,,,0.02,fowsr,2013-02-23 11:15:00,
2013-02-23 06:20:00,36.0,33.4,30.13,East,90,0.7,1.6,87,0.01,,,0.02,fowsr,2013-02-23 11:20:00,
2013-02-23 06:30:00,36.1,33.8,30.13,East,90,0.7,1.6,88,0.01,,,0.02,fowsr,2013-02-23 11:30:00,
2013-02-23 06:35:00,36.1,33.8,30.14,NE,45,0.0,0.7,88,0.00,,,0.02,fowsr,2013-02-23 11:35:00,
2013-02-23 06:40:00,36.3,34.0,30.13,East,90,0.7,1.6,88,0.00,,,0.02,fowsr,2013-02-23 11:40:00,
2013-02-23 06:45:00,36.3,34.0,30.13,NE,45,0.0,0.7,88,0.00,,,0.02,fowsr,2013-02-23 11:45:00,
2013-02-23 06:50:00,36.3,34.0,30.13,East,90,0.7,1.6,88,0.00,,,0.02,fowsr,2013-02-23 11:50:00,
2013-02-23 06:55:00,36.5,34.2,30.13,East,90,0.7,1.6,88,0.00,,,0.02,fowsr,2013-02-23 11:55:00,
2013-02-23 07:00:00,36.5,34.2,30.12,East,90,0.0,0.7,88,0.00,,,0.02,fowsr,2013-02-23 12:00:00,
2013-02-23 07:05:00,36.5,34.2,30.13,East,90,0.0,0.7,88,0.00,,,0.02,fowsr,2013-02-23 12:05:00,
2013-02-23 07:10:00,36.7,34.4,30.13,East,90,0.7,1.6,88,0.00,,,0.02,fowsr,2013-02-23 12:10:00,
2013-02-23 07:15:00,36.7,34.4,30.12,ESE,112,0.7,1.6,88,0.00,,,0.02,fowsr,2013-02-23 12:15:00,
2013-02-23 07:20:00,36.9,34.5,30.12,East,90,0.0,0.7,88,0.00,,,0.02,fowsr,2013-02-23 12:20:00,
2013-02-23 07:25:00,36.9,34.7,30.12,NE,45,0.7,1.6,89,0.00,,,0.02,fowsr,2013-02-23 12:25:00,
2013-02-23 07:30:00,36.9,34.7,30.12,East,90,1.6,3.1,89,0.01,,,0.04,fowsr,2013-02-23 12:30:00,
2013-02-23 07:35:00,37.0,34.9,30.12,NE,45,0.0,0.0,89,0.01,,,0.04,fowsr,2013-02-23 12:35:00,
2013-02-23 07:40:00,37.0,34.9,30.12,East,90,0.0,0.7,89,0.01,,,0.04,fowsr,2013-02-23 12:40:00,
2013-02-23 07:45:00,37.2,35.1,30.11,East,90,0.7,1.6,89,0.01,,,0.04,fowsr,2013-02-23 12:45:00,
2013-02-23 07:55:00,37.2,35.1,30.12,East,90,0.7,1.6,89,0.01,,,0.04,fowsr,2013-02-23 12:55:00,
2013-02-23 08:00:00,37.2,35.1,30.12,East,90,0.0,0.7,89,0.01,,,0.04,fowsr,2013-02-23 13:00:00,
2013-02-23 08:05:00,37.2,35.1,30.12,NE,45,0.7,3.1,89,0.01,,,0.04,fowsr,2013-02-23 13:05:00,
2013-02-23 08:10:00,37.6,36.2,30.11,East,90,0.0,0.0,93,0.01,,,0.04,fowsr,2013-02-23 13:10:00,
2013-02-23 08:15:00,37.8,36.4,30.11,East,90,0.7,1.6,93,0.01,,,0.04,fowsr,2013-02-23 13:15:00,
2013-02-23 08:20:00,37.8,36.4,30.10,East,90,0.7,2.2,93,0.01,,,0.04,fowsr,2013-02-23 13:20:00,
2013-02-23 08:25:00,37.8,36.6,30.11,East,90,0.7,1.6,94,0.01,,,0.04,fowsr,2013-02-23 13:25:00,
2013-02-23 08:30:00,37.9,36.8,30.10,East,90,0.7,1.6,94,0.01,,,0.04,fowsr,2013-02-23 13:30:00,
2013-02-23 08:35:00,38.1,37.0,30.11,East,90,0.0,0.0,94,0.01,,,0.04,fowsr,2013-02-23 13:35:00,
2013-02-23 08:40:00,38.3,37.2,30.10,East,90,0.7,1.6,94,0.00,,,0.04,fowsr,2013-02-23 13:40:00,
2013-02-23 08:45:00,38.3,37.2,30.10,East,90,0.0,0.7,94,0.00,,,0.04,fowsr,2013-02-23 13:45:00,
2013-02-23 08:50:00,38.5,37.3,30.10,SE,135,0.0,0.0,94,0.00,,,0.04,fowsr,2013-02-23 13:50:00,
2013-02-23 08:55:00,38.7,37.5,30.10,East,90,0.0,0.7,94,0.00,,,0.04,fowsr,2013-02-23 13:55:00,
2013-02-23 09:00:00,38.7,37.5,30.09,East,90,0.0,0.7,94,0.00,,,0.04,fowsr,2013-02-23 14:00:00,
2013-02-23 09:05:00,38.8,37.7,30.09,East,90,0.0,0.7,94,0.00,,,0.04,fowsr,2013-02-23 14:05:00,
2013-02-23 09:10:00,39.0,37.9,30.10,East,90,0.0,0.0,94,0.00,,,0.04,fowsr,2013-02-23 14:10:00,
2013-02-23 09:15:00,39.2,38.0,30.09,East,90,0.0,0.7,94,0.00,,,0.04,fowsr,2013-02-23 14:15:00,
2013-02-23 09:20:00,39.2,38.0,30.08,East,90,0.7,1.6,94,0.00,,,0.04,fowsr,2013-02-23 14:20:00,
2013-02-23 09:25:00,39.4,38.2,30.08,NE,45,0.7,2.2,94,0.00,,,0.04,fowsr,2013-02-23 14:25:00,
2013-02-23 09:30:00,39.6,38.4,30.08,East,90,1.6,2.2,94,0.01,,,0.05,fowsr,2013-02-23 14:30:00,
2013-02-23 09:35:00,39.7,38.6,30.08,East,90,1.6,3.1,94,0.01,,,0.05,fowsr,2013-02-23 14:35:00,
2013-02-23 09:40:00,39.7,38.6,30.08,East,90,1.6,2.2,94,0.01,,,0.05,fowsr,2013-02-23 14:40:00,
2013-02-23 09:45:00,39.9,38.8,30.08,East,90,0.0,0.7,94,0.01,,,0.05,fowsr,2013-02-23 14:45:00,
2013-02-23 09:50:00,40.1,38.9,30.07,East,90,0.7,2.2,94,0.01,,,0.05,fowsr,2013-02-23 14:50:00,
2013-02-23 09:55:00,40.3,39.1,30.07,ESE,112,1.6,2.2,94,0.01,,,0.05,fowsr,2013-02-23 14:55:00,
2013-02-23 10:00:00,40.5,39.3,30.07,SE,135,0.7,2.2,94,0.01,,,0.05,fowsr,2013-02-23 15:00:00,
2013-02-23 10:05:00,40.6,39.5,30.07,East,90,1.6,3.8,94,0.01,,,0.05,fowsr,2013-02-23 15:05:00,
2013-02-23 10:10:00,40.6,39.5,30.06,East,90,1.6,3.1,94,0.01,,,0.05,fowsr,2013-02-23 15:10:00,
2013-02-23 10:15:00,40.8,39.7,30.06,East,90,0.0,2.2,94,0.01,,,0.05,fowsr,2013-02-23 15:15:00,
2013-02-23 10:20:00,41.0,39.6,30.06,NE,45,0.0,1.6,93,0.01,,,0.05,fowsr,2013-02-23 15:20:00,
2013-02-23 10:25:00,41.2,39.8,30.06,East,90,1.6,3.1,93,0.01,,,0.05,fowsr,2013-02-23 15:25:00,
2013-02-23 10:30:00,41.2,40.0,30.06,East,90,0.0,1.6,94,0.02,,,0.06,fowsr,2013-02-23 15:30:00,
2013-02-23 10:35:00,41.2,40.0,30.06,East,90,0.0,1.6,94,0.02,,,0.06,fowsr,2013-02-23 15:35:00,
2013-02-23 10:40:00,41.2,40.0,30.05,East,90,0.7,1.6,94,0.01,,,0.06,fowsr,2013-02-23 15:40:00,
2013-02-23 10:45:00,41.4,40.2,30.05,East,90,0.0,0.7,94,0.01,,,0.06,fowsr,2013-02-23 15:45:00,
2013-02-23 10:50:00,41.4,40.2,30.05,East,90,0.0,1.6,94,0.01,,,0.06,fowsr,2013-02-23 15:50:00,
2013-02-23 10:55:00,41.5,40.4,30.05,East,90,0.0,0.7,94,0.01,,,0.06,fowsr,2013-02-23 15:55:00,
2013-02-23 11:00:00,41.7,40.5,30.04,NE,45,0.0,0.0,94,0.01,,,0.06,fowsr,2013-02-23 16:00:00,
2013-02-23 11:05:00,41.9,40.7,30.04,NE,45,0.7,2.2,94,0.01,,,0.06,fowsr,2013-02-23 16:05:00,
2013-02-23 11:10:00,41.9,40.7,30.04,NE,45,0.7,2.2,94,0.01,,,0.06,fowsr,2013-02-23 16:10:00,
2013-02-23 11:15:00,41.9,40.7,30.03,NE,45,0.7,2.2,94,0.01,,,0.06,fowsr,2013-02-23 16:15:00,
2013-02-23 11:20:00,41.9,40.7,30.02,NE,45,0.7,2.2,94,0.01,,,0.06,fowsr,2013-02-23 16:20:00,
2013-02-23 11:25:00,42.1,40.9,30.03,NE,45,1.6,2.2,94,0.01,,,0.06,fowsr,2013-02-23 16:25:00,
2013-02-23 11:30:00,42.3,41.1,30.03,NE,45,0.0,0.0,94,0.01,,,0.06,fowsr,2013-02-23 16:30:00,
2013-02-23 11:35:00,42.4,41.3,30.03,East,90,0.0,0.7,94,0.00,,,0.06,fowsr,2013-02-23 16:35:00,
2013-02-23 11:40:00,42.4,41.3,30.03,SE,135,0.0,0.7,94,0.00,,,0.06,fowsr,2013-02-23 16:40:00,
2013-02-23 11:45:00,42.8,41.4,30.03,NE,45,0.0,0.7,93,0.00,,,0.06,fowsr,2013-02-23 16:45:00,
2013-02-23 11:50:00,42.8,41.4,30.03,East,90,0.7,0.7,93,0.01,,,0.07,fowsr,2013-02-23 16:50:00,
2013-02-23 11:55:00,43.0,41.6,30.02,East,90,0.7,1.6,93,0.01,,,0.07,fowsr,2013-02-23 16:55:00,
2013-02-23 12:00:00,43.3,42.2,30.02,East,90,0.7,1.6,94,0.01,,,0.07,fowsr,2013-02-23 17:00:00,
2013-02-23 12:05:00,43.9,42.7,30.02,East,90,0.0,0.7,94,0.01,,,0.07,fowsr,2013-02-23 17:05:00,
2013-02-23 12:10:00,43.9,42.7,30.02,East,90,0.0,0.7,94,0.01,,,0.07,fowsr,2013-02-23 17:10:00,
2013-02-23 12:15:00,44.2,43.0,30.01,East,90,0.0,0.0,94,0.02,,,0.08,fowsr,2013-02-23 17:15:00,
2013-02-23 12:20:00,44.2,43.0,30.01,East,90,0.7,1.6,94,0.02,,,0.08,fowsr,2013-02-23 17:20:00,
2013-02-23 12:25:00,44.6,43.2,30.00,East,90,0.7,1.6,93,0.02,,,0.08,fowsr,2013-02-23 17:25:00,
2013-02-23 12:30:00,44.6,43.2,30.00,SE,135,0.0,1.6,93,0.02,,,0.08,fowsr,2013-02-23 17:30:00,
2013-02-23 12:35:00,44.8,43.4,29.99,SE,135,0.7,1.6,93,0.02,,,0.08,fowsr,2013-02-23 17:35:00,
2013-02-23 12:40:00,44.8,43.4,29.99,SE,135,0.0,1.6,93,0.02,,,0.08,fowsr,2013-02-23 17:40:00,
2013-02-23 12:45:00,44.8,43.4,29.98,East,90,2.2,3.8,93,0.02,,,0.08,fowsr,2013-02-23 17:45:00,
2013-02-23 12:50:00,44.8,43.4,29.98,East,90,0.0,1.6,93,0.02,,,0.08,fowsr,2013-02-23 17:50:00,
2013-02-23 12:55:00,44.8,43.4,29.98,East,90,0.7,1.6,93,0.01,,,0.08,fowsr,2013-02-23 17:55:00,
2013-02-23 13:00:00,44.8,43.4,29.97,NE,45,0.7,1.6,93,0.01,,,0.08,fowsr,2013-02-23 18:00:00,
2013-02-23 13:05:00,44.8,43.4,29.97,NE,45,0.7,1.6,93,0.01,,,0.08,fowsr,2013-02-23 18:05:00,
2013-02-23 13:10:00,44.8,43.4,29.97,NE,45,0.0,0.7,93,0.01,,,0.08,fowsr,2013-02-23 18:10:00,
2013-02-23 13:15:00,44.8,43.4,29.97,NE,45,0.7,2.2,93,0.01,,,0.08,fowsr,2013-02-23 18:15:00,
2013-02-23 13:20:00,44.6,43.2,29.97,NE,45,0.7,1.6,93,0.00,,,0.08,fowsr,2013-02-23 18:20:00,
2013-02-23 13:25:00,44.6,43.2,29.97,North,0,0.7,2.2,93,0.00,,,0.08,fowsr,2013-02-23 18:25:00,
2013-02-23 13:30:00,44.6,43.2,29.97,North,0,1.6,2.2,93,0.00,,,0.08,fowsr,2013-02-23 18:30:00,
2013-02-23 13:35:00,44.6,43.2,29.97,North,0,0.7,1.6,93,0.00,,,0.08,fowsr,2013-02-23 18:35:00,
2013-02-23 13:40:00,44.6,43.2,29.97,North,0,0.0,1.6,93,0.00,,,0.08,fowsr,2013-02-23 18:40:00,
2013-02-23 13:45:00,44.6,43.2,29.97,North,0,0.7,3.1,93,0.00,,,0.08,fowsr,2013-02-23 18:45:00,
2013-02-23 13:50:00,44.6,43.2,29.97,NE,45,1.6,3.1,93,0.01,,,0.09,fowsr,2013-02-23 18:50:00,
2013-02-23 13:55:00,44.6,43.2,29.96,NE,45,1.6,2.2,93,0.01,,,0.09,fowsr,2013-02-23 18:55:00,
2013-02-23 14:00:00,44.4,43.2,29.96,North,0,1.6,2.2,94,0.01,,,0.09,fowsr,2013-02-23 19:00:00,
2013-02-23 14:05:00,44.6,43.2,29.96,North,0,0.7,2.2,93,0.01,,,0.09,fowsr,2013-02-23 19:05:00,
2013-02-23 14:10:00,44.4,43.2,29.96,North,0,0.7,1.6,94,0.02,,,0.11,fowsr,2013-02-23 19:10:00,
2013-02-23 14:15:00,44.2,43.0,29.95,NE,45,0.7,1.6,94,0.02,,,0.11,fowsr,2013-02-23 19:15:00,
2013-02-23 14:20:00,44.2,43.0,29.95,NE,45,1.6,2.2,94,0.02,,,0.11,fowsr,2013-02-23 19:20:00,
2013-02-23 14:25:00,44.2,43.0,29.94,North,0,0.7,2.2,94,0.02,,,0.11,fowsr,2013-02-23 19:25:00,
2013-02-23 14:30:00,44.2,43.0,29.94,North,0,1.6,2.2,94,0.04,,,0.12,fowsr,2013-02-23 19:30:00,
2013-02-23 14:35:00,44.2,43.0,29.94,North,0,0.7,1.6,94,0.04,,,0.12,fowsr,2013-02-23 19:35:00,
2013-02-23 14:40:00,44.2,43.0,29.94,NE,45,0.7,2.2,94,0.05,,,0.13,fowsr,2013-02-23 19:40:00,
2013-02-23 14:45:00,44.2,43.0,29.94,North,0,1.6,3.1,94,0.05,,,0.13,fowsr,2013-02-23 19:45:00,
2013-02-23 14:50:00,44.2,43.0,29.94,North,0,2.2,3.8,94,0.06,,,0.14,fowsr,2013-02-23 19:50:00,
2013-02-23 14:55:00,44.2,43.0,29.94,WSW,247,1.6,3.1,94,0.05,,,0.14,fowsr,2013-02-23 19:55:00,
2013-02-23 15:00:00,44.2,43.0,29.94,North,0,0.7,1.6,94,0.05,,,0.14,fowsr,2013-02-23 20:00:00,
2013-02-23 15:05:00,44.2,43.0,29.94,NW,315,1.6,2.2,94,0.05,,,0.14,fowsr,2013-02-23 20:05:00,
2013-02-23 15:10:00,44.2,43.0,29.94,NE,45,1.6,2.2,94,0.05,,,0.14,fowsr,2013-02-23 20:10:00,
2013-02-23 15:15:00,44.1,42.9,29.94,North,0,1.6,3.1,94,0.04,,,0.14,fowsr,2013-02-23 20:15:00,
2013-02-23 15:20:00,43.7,42.5,29.94,North,0,1.6,3.8,94,0.04,,,0.14,fowsr,2013-02-23 20:20:00,
2013-02-23 15:25:00,43.3,42.0,29.94,North,0,1.6,3.1,93,0.04,,,0.14,fowsr,2013-02-23 20:25:00,
2013-02-23 15:30:00,42.8,41.4,29.93,NE,45,1.6,3.1,93,0.04,,,0.14,fowsr,2013-02-23 20:30:00,
2013-02-23 15:35:00,42.6,41.4,29.93,WNW,292,2.2,4.5,94,0.02,,,0.14,fowsr,2013-02-23 20:35:00,
2013-02-23 15:40:00,42.4,41.3,29.93,NW,315,3.1,3.8,94,0.02,,,0.14,fowsr,2013-02-23 20:40:00,
2013-02-23 15:45:00,42.3,41.1,29.93,NNW,337,2.2,3.1,94,0.01,,,0.14,fowsr,2013-02-23 20:45:00,
2013-02-23 15:50:00,42.3,41.1,29.93,NE,45,0.7,2.2,94,0.02,,,0.15,fowsr,2013-02-23 20:50:00,
2013-02-23 15:55:00,42.3,41.1,29.92,NE,45,2.2,3.1,94,0.02,,,0.15,fowsr,2013-02-23 20:55:00,
2013-02-23 16:00:00,42.3,41.1,29.92,North,0,1.6,3.8,94,0.01,,,0.15,fowsr,2013-02-23 21:00:00,
2013-02-23 16:05:00,42.3,41.1,29.92,North,0,1.6,2.2,94,0.01,,,0.15,fowsr,2013-02-23 21:05:00,
2013-02-23 16:10:00,42.3,41.1,29.92,North,0,0.7,2.2,94,0.01,,,0.15,fowsr,2013-02-23 21:10:00,
2013-02-23 16:15:00,42.1,40.9,29.92,West,270,1.6,3.1,94,0.01,,,0.15,fowsr,2013-02-23 21:15:00,
2013-02-23 16:20:00,42.1,40.9,29.92,North,0,2.2,3.1,94,0.01,,,0.15,fowsr,2013-02-23 21:20:00,
2013-02-23 16:25:00,41.9,40.7,29.92,North,0,2.2,3.8,94,0.01,,,0.15,fowsr,2013-02-23 21:25:00,
2013-02-23 16:30:00,41.9,40.7,29.91,North,0,2.2,3.8,94,0.01,,,0.15,fowsr,2013-02-23 21:30:00,
2013-02-23 16:35:00,41.9,40.7,29.92,NE,45,2.2,3.1,94,0.01,,,0.15,fowsr,2013-02-23 21:35:00,
2013-02-23 16:40:00,41.7,40.5,29.91,NE,45,2.2,3.8,94,0.01,,,0.15,fowsr,2013-02-23 21:40:00,
2013-02-23 16:45:00,41.7,40.5,29.90,North,0,1.6,2.2,94,0.01,,,0.15,fowsr,2013-02-23 21:45:00,
2013-02-23 16:50:00,41.7,40.5,29.90,North,0,1.6,3.1,94,0.01,,,0.15,fowsr,2013-02-23 21:50:00,
2013-02-23 16:55:00,41.7,40.5,29.90,NE,45,3.1,3.8,94,0.00,,,0.15,fowsr,2013-02-23 21:55:00,
2013-02-23 17:00:00,41.7,40.5,29.89,NE,45,3.1,3.8,94,0.00,,,0.15,fowsr,2013-02-23 22:00:00,
2013-02-23 17:05:00,41.9,40.7,29.89,NE,45,2.2,3.8,94,0.00,,,0.15,fowsr,2013-02-23 22:05:00,
2013-02-23 17:10:00,41.9,40.7,29.89,NE,45,1.6,2.2,94,0.00,,,0.15,fowsr,2013-02-23 22:10:00,
2013-02-23 17:15:00,41.9,40.7,29.89,NE,45,1.6,3.1,94,0.00,,,0.15,fowsr,2013-02-23 22:15:00,
2013-02-23 17:20:00,42.1,40.9,29.89,North,0,1.6,2.2,94,0.00,,,0.15,fowsr,2013-02-23 22:20:00,
2013-02-23 17:25:00,42.1,40.9,29.89,NE,45,1.6,2.2,94,0.00,,,0.15,fowsr,2013-02-23 22:25:00,
2013-02-23 17:30:00,42.3,41.1,29.88,NE,45,1.6,3.1,94,0.00,,,0.15,fowsr,2013-02-23 22:30:00,
2013-02-23 17:35:00,42.4,41.5,29.88,North,0,1.6,2.2,95,0.00,,,0.15,fowsr,2013-02-23 22:35:00,
2013-02-23 17:40:00,42.4,41.5,29.88,NE,45,2.2,3.1,95,0.00,,,0.15,fowsr,2013-02-23 22:40:00,
2013-02-23 17:45:00,42.6,41.6,29.88,East,90,1.6,3.8,95,0.00,,,0.15,fowsr,2013-02-23 22:45:00,
2013-02-23 17:55:00,42.6,41.6,29.89,NE,45,3.1,3.8,95,0.00,,,0.15,fowsr,2013-02-23 22:55:00,
2013-02-23 18:00:00,42.6,41.6,29.89,NE,45,3.1,4.5,95,0.00,,,0.15,fowsr,2013-02-23 23:00:00,
2013-02-23 18:05:00,42.4,41.5,29.89,ENE,67,3.1,3.8,95,0.01,,,0.17,fowsr,2013-02-23 23:05:00,
2013-02-23 18:10:00,42.4,41.5,29.89,ENE,67,3.1,3.8,95,0.01,,,0.17,fowsr,2013-02-23 23:10:00,
2013-02-23 18:15:00,42.1,41.1,29.90,NE,45,3.1,4.5,95,0.01,,,0.17,fowsr,2013-02-23 23:15:00,
2013-02-23 18:20:00,41.9,40.7,29.90,NE,45,2.2,3.8,94,0.01,,,0.17,fowsr,2013-02-23 23:20:00,
2013-02-23 18:25:00,41.7,40.5,29.90,NE,45,1.6,2.2,94,0.01,,,0.17,fowsr,2013-02-23 23:25:00,
2013-02-23 18:35:00,41.4,40.2,29.90,NE,45,3.1,3.8,94,0.01,,,0.17,fowsr,2013-02-23 23:35:00,
2013-02-23 18:40:00,41.2,40.0,29.90,NE,45,1.6,3.1,94,0.01,,,0.17,fowsr,2013-02-23 23:40:00,
2013-02-23 18:45:00,41.0,39.8,29.90,North,0,2.2,3.8,94,0.01,,,0.17,fowsr,2013-02-23 23:45:00,
2013-02-23 18:50:00,40.8,39.9,29.90,East,90,1.6,2.2,95,0.01,,,0.17,fowsr,2013-02-23 23:50:00,
2013-02-23 18:55:00,40.6,39.7,29.89,NE,45,3.1,3.8,95,0.01,,,0.17,fowsr,2013-02-23 23:55:00,
2013-02-23 19:00:00,40.3,39.3,29.89,East,90,3.8,5.4,95,0.01,,,0.17,fowsr,2013-02-24 00:00:00,
2013-02-23 19:10:00,39.9,38.8,29.90,NE,45,2.2,3.8,94,0.01,,,0.18,fowsr,2013-02-24 00:10:00,
2013-02-23 19:15:00,39.7,38.6,29.89,NE,45,1.6,3.1,94,0.01,,,0.18,fowsr,2013-02-24 00:15:00,
2013-02-23 19:20:00,39.6,38.4,29.89,East,90,2.2,3.8,94,0.01,,,0.18,fowsr,2013-02-24 00:20:00,
2013-02-23 19:25:00,39.4,38.2,29.89,East,90,2.2,4.5,94,0.01,,,0.18,fowsr,2013-02-24 00:25:00,
2013-02-23 19:30:00,39.4,38.2,29.89,SE,135,3.1,4.5,94,0.01,,,0.18,fowsr,2013-02-24 00:30:00,
2013-02-23 19:40:00,39.2,38.0,29.89,NE,45,1.6,3.1,94,0.01,,,0.18,fowsr,2013-02-24 00:40:00,
2013-02-23 19:45:00,39.2,38.0,29.89,East,90,2.2,3.8,94,0.01,,,0.18,fowsr,2013-02-24 00:45:00,
2013-02-23 19:50:00,39.2,38.0,29.89,East,90,2.2,3.8,94,0.01,,,0.18,fowsr,2013-02-24 00:50:00,
2013-02-23 19:55:00,39.0,38.1,29.89,North,0,1.6,2.2,95,0.01,,,0.18,fowsr,2013-02-24 00:55:00,
2013-02-23 20:00:00,39.2,38.0,29.88,NE,45,1.6,3.8,94,0.01,,,0.18,fowsr,2013-02-24 01:00:00,
2013-02-23 20:05:00,39.2,38.0,29.89,NE,45,2.2,3.8,94,0.01,,,0.18,fowsr,2013-02-24 01:05:00,
2013-02-23 20:10:00,39.2,38.0,29.89,NE,45,2.2,3.8,94,0.00,,,0.18,fowsr,2013-02-24 01:10:00,
2013-02-23 20:15:00,39.2,38.0,29.88,East,90,2.2,3.8,94,0.00,,,0.18,fowsr,2013-02-24 01:15:00,
2013-02-23 20:20:00,39.2,38.0,29.87,East,90,2.2,3.8,94,0.00,,,0.18,fowsr,2013-02-24 01:20:00,
2013-02-23 20:25:00,39.2,38.0,29.88,NE,45,1.6,3.1,94,0.00,,,0.18,fowsr,2013-02-24 01:25:00,
2013-02-23 20:30:00,39.2,38.0,29.88,ENE,67,3.1,5.4,94,0.00,,,0.18,fowsr,2013-02-24 01:30:00,
2013-02-23 20:35:00,39.2,38.0,29.87,East,90,2.2,3.1,94,0.00,,,0.18,fowsr,2013-02-24 01:35:00,
2013-02-23 20:40:00,39.0,38.1,29.87,NE,45,1.6,2.2,95,0.00,,,0.18,fowsr,2013-02-24 01:40:00,
2013-02-23 20:45:00,39.0,38.1,29.86,NE,45,1.6,3.1,95,0.00,,,0.18,fowsr,2013-02-24 01:45:00,
2013-02-23 20:50:00,39.0,38.1,29.86,NE,45,0.7,2.2,95,0.00,,,0.18,fowsr,2013-02-24 01:50:00,
2013-02-23 20:55:00,39.0,38.1,29.86,SE,135,1.6,3.1,95,0.00,,,0.18,fowsr,2013-02-24 01:55:00,
2013-02-23 21:00:00,38.8,37.9,29.86,NE,45,0.7,1.6,95,0.00,,,0.18,fowsr,2013-02-24 02:00:00,
2013-02-23 21:05:00,38.8,37.9,29.86,NE,45,0.7,2.2,95,0.00,,,0.18,fowsr,2013-02-24 02:05:00,
2013-02-23 21:10:00,38.8,37.9,29.86,NE,45,1.6,3.1,95,0.00,,,0.18,fowsr,2013-02-24 02:10:00,
2013-02-23 21:15:00,39.0,38.1,29.86,NE,45,1.6,3.1,95,0.00,,,0.18,fowsr,2013-02-24 02:15:00,
2013-02-23 21:20:00,39.0,38.1,29.85,NE,45,1.6,3.1,95,0.00,,,0.18,fowsr,2013-02-24 02:20:00,
2013-02-23 21:25:00,39.0,38.1,29.85,NE,45,1.6,3.1,95,0.00,,,0.18,fowsr,2013-02-24 02:25:00,
2013-02-23 21:30:00,39.0,38.1,29.85,North,0,1.6,3.1,95,0.00,,,0.18,fowsr,2013-02-24 02:30:00,
2013-02-23 21:35:00,39.2,38.0,29.85,NE,45,2.2,3.1,94,0.00,,,0.18,fowsr,2013-02-24 02:35:00,
2013-02-23 21:40:00,39.2,38.0,29.86,NE,45,1.6,2.2,94,0.00,,,0.18,fowsr,2013-02-24 02:40:00,
2013-02-23 21:45:00,39.0,38.1,29.86,NE,45,2.2,3.1,95,0.00,,,0.18,fowsr,2013-02-24 02:45:00,
2013-02-23 21:50:00,39.0,38.1,29.86,North,0,1.6,2.2,95,0.00,,,0.18,fowsr,2013-02-24 02:50:00,
2013-02-23 21:55:00,39.0,38.1,29.85,North,0,3.1,4.5,95,0.00,,,0.18,fowsr,2013-02-24 02:55:00,
2013-02-23 22:00:00,38.8,37.9,29.85,NE,45,3.1,3.8,95,0.00,,,0.18,fowsr,2013-02-24 03:00:00,
2013-02-23 22:05:00,38.5,37.5,29.85,NE,45,2.2,3.8,95,0.00,,,0.18,fowsr,2013-02-24 03:05:00,
2013-02-23 22:10:00,38.5,37.5,29.85,NE,45,3.1,4.5,95,0.00,,,0.18,fowsr,2013-02-24 03:10:00,
2013-02-23 22:15:00,38.3,37.4,29.85,North,0,3.1,3.8,95,0.00,,,0.18,fowsr,2013-02-24 03:15:00,
2013-02-23 22:20:00,38.1,37.2,29.85,NE,45,1.6,2.2,95,0.00,,,0.18,fowsr,2013-02-24 03:20:00,
2013-02-23 22:25:00,37.9,37.0,29.85,NE,45,2.2,6.0,95,0.00,,,0.18,fowsr,2013-02-24 03:25:00,
2013-02-23 22:30:00,37.9,37.0,29.85,NE,45,1.6,3.1,95,0.00,,,0.18,fowsr,2013-02-24 03:30:00,
2013-02-23 22:35:00,37.8,36.8,29.84,NE,45,2.2,3.1,95,0.01,,,0.19,fowsr,2013-02-24 03:35:00,
2013-02-23 22:40:00,37.8,36.8,29.84,NE,45,1.6,3.1,95,0.01,,,0.19,fowsr,2013-02-24 03:40:00,
2013-02-23 22:45:00,37.8,36.8,29.84,NE,45,1.6,2.2,95,0.01,,,0.19,fowsr,2013-02-24 03:45:00,
2013-02-23 22:50:00,37.6,36.6,29.84,NW,315,1.6,2.2,95,0.01,,,0.19,fowsr,2013-02-24 03:50:00,
2013-02-23 22:55:00,37.6,36.6,29.83,NE,45,2.2,3.1,95,0.01,,,0.19,fowsr,2013-02-24 03:55:00,
2013-02-23 23:00:00,37.6,36.4,29.83,West,270,2.2,3.8,94,0.01,,,0.19,fowsr,2013-02-24 04:00:00,
2013-02-23 23:05:00,37.6,36.4,29.83,West,270,2.2,3.8,94,0.01,,,0.19,fowsr,2013-02-24 04:05:00,
2013-02-23 23:10:00,37.4,36.3,29.82,North,0,1.6,3.1,94,0.01,,,0.19,fowsr,2013-02-24 04:10:00,
2013-02-23 23:15:00,37.2,35.3,29.82,North,0,1.6,3.1,90,0.01,,,0.19,fowsr,2013-02-24 04:15:00,
2013-02-23 23:20:00,37.2,35.3,29.83,NW,315,0.7,2.2,90,0.01,,,0.19,fowsr,2013-02-24 04:20:00,
2013-02-23 23:25:00,37.0,35.1,29.82,West,270,0.7,2.2,90,0.01,,,0.19,fowsr,2013-02-24 04:25:00,
2013-02-23 23:30:00,37.0,35.1,29.82,NNW,337,1.6,3.1,90,0.01,,,0.19,fowsr,2013-02-24 04:30:00,
2013-02-23 23:35:00,37.0,35.1,29.82,North,0,1.6,2.2,90,0.01,,,0.19,fowsr,2013-02-24 04:35:00,
2013-02-23 23:40:00,36.9,34.9,29.83,North,0,2.2,3.1,90,0.01,,,0.19,fowsr,2013-02-24 04:40:00,
2013-02-23 23:45:00,36.9,34.9,29.83,North,0,0.7,1.6,90,0.00,,,0.19,fowsr,2013-02-24 04:45:00,
2013-02-23 23:50:00,36.9,34.9,29.83,North,0,0.7,2.2,90,0.00,,,0.19,fowsr,2013-02-24 04:50:00,
2013-02-23 23:55:00,36.7,34.8,29.83,North,0,1.6,2.2,90,0.00,,,0.19,fowsr,2013-02-24 04:55:00,